Time,TemperatureF,DewpointF,PressureIn,WindDirection,WindDirectionDegrees,WindSpeedMPH,WindSpeedGustMPH,Humidity,HourlyPrecipIn,Conditions,Clouds,dailyrainin,SolarRadiationWatts/m^2,SoftwareType,DateUTC
2013-04-03 08:00:00,37.0,31.0,30.18,SSE,149,6.0,-999.0,78,-99.99,,,-99.99,80.400002,,2013-04-03 14:00:00,
2013-04-03 08:52:00,37.0,31.0,30.18,SSE,149,6.0,-999.0,78,-99.99,,,-99.99,80.400002,,2013-04-03 14:52:00,
2013-04-03 09:00:00,41.0,27.0,30.18,South,176,9.0,-999.0,56,-99.99,,,-99.99,184.100006,,2013-04-03 15:00:00,
2013-04-03 09:53:00,41.0,27.0,30.18,South,176,9.0,-999.0,56,-99.99,,,-99.99,184.100006,,2013-04-03 15:53:00,
2013-04-03 10:00:00,44.0,24.0,30.19,South,177,14.0,-999.0,45,-99.99,,,-99.99,484.399994,,2013-04-03 16:00:00,
2013-04-03 10:53:00,44.0,24.0,30.19,South,177,14.0,-999.0,45,-99.99,,,-99.99,484.399994,,2013-04-03 16:53:00,
2013-04-03 11:00:00,48.0,24.0,30.20,South,175,15.0,-999.0,39,-99.99,,,-99.99,594.200012,,2013-04-03 17:00:00,
2013-04-03 11:54:00,48.0,24.0,30.20,South,175,15.0,-999.0,39,-99.99,,,-99.99,594.200012,,2013-04-03 17:54:00,
2013-04-03 12:00:00,50.0,25.0,30.18,South,176,15.0,-999.0,37,-99.99,,,-99.99,780.000000,,2013-04-03 18:00:00,
2013-04-03 12:52:00,50.0,25.0,30.18,South,176,15.0,-999.0,37,-99.99,,,-99.99,780.000000,,2013-04-03 18:52:00,
2013-04-03 13:00:00,50.0,23.0,30.17,South,176,16.0,-999.0,34,-99.99,,,-99.99,811.000000,,2013-04-03 19:00:00,
2013-04-03 13:52:00,50.0,23.0,30.17,South,176,16.0,-999.0,34,-99.99,,,-99.99,811.000000,,2013-04-03 19:52:00,
2013-04-03 14:00:00,51.0,22.0,30.16,South,173,17.0,-999.0,32,-99.99,,,-99.99,854.000000,,2013-04-03 20:00:00,
2013-04-03 14:53:00,51.0,22.0,30.16,South,173,17.0,-999.0,32,-99.99,,,-99.99,854.000000,,2013-04-03 20:53:00,
2013-04-03 15:00:00,54.0,24.0,30.14,South,171,17.0,-999.0,31,-99.99,,,-99.99,754.000000,,2013-04-03 21:00:00,
2013-04-03 15:52:00,54.0,24.0,30.14,South,171,17.0,-999.0,31,-99.99,,,-99.99,754.000000,,2013-04-03 21:52:00,
2013-04-03 16:00:00,53.0,26.0,30.12,South,173,14.0,-999.0,34,-99.99,,,-99.99,637.700012,,2013-04-03 22:00:00,
2013-04-03 16:52:00,53.0,26.0,30.12,South,173,14.0,-999.0,34,-99.99,,,-99.99,637.700012,,2013-04-03 22:52:00,
2013-04-03 17:00:00,53.0,27.0,30.11,SSE,167,14.0,-999.0,36,-99.99,,,-99.99,478.000000,,2013-04-03 23:00:00,
2013-04-03 17:54:00,53.0,27.0,30.11,SSE,167,14.0,-999.0,36,-99.99,,,-99.99,478.000000,,2013-04-03 23:54:00,
2013-04-03 18:00:00,52.0,28.0,30.11,SSE,161,13.0,-999.0,40,-99.99,,,-99.99,293.000000,,2013-04-04 00:00:00,
2013-04-03 18:52:00,52.0,28.0,30.11,SSE,161,13.0,-999.0,40,-99.99,,,-99.99,293.000000,,2013-04-04 00:52:00,